Regional Weather Roundup
Issued by NWS Albany, NY

Home | Current Version | Previous Version | Graphics & Text | Print | Product List | Glossary On
Versions: 1 2 3 4 5 6 7 8 9 10 11 12 13 14 15 16 17 18 19 20 21 22 23 24 25 26 27 28 29 30 31 32 33 34 35 36 37 38 39 40 41 42 43 44 45 46 47 48 49 50
000
ASUS41 KALY 291910
RWRALY

NEW YORK STATE HOURLY WEATHER ROUNDUP
NATIONAL WEATHER SERVICE ALBANY NY
300 PM EDT FRI AUG 29 2014

NOTE: "FAIR" INDICATES FEW OR NO CLOUDS BELOW 12,000 FEET WITH NO
SIGNIFICANT WEATHER AND/OR NO OBSTRUCTIONS TO VISIBILITY.

NYZ032-033-038>043-046>054-057>066-NYZ062>081-292000-
EAST


CITY           SKY/WX    TMP DP  RH WIND       PRES   REMARKS
ALBANY         MOSUNNY   75  52  44 CALM      30.19S
GLENS FALLS    SUNNY     73  55  53 MISG      30.18F
POUGHKEEPSIE   SUNNY     77  52  41 VRB3      30.17F
NEWBURGH       MOSUNNY   75  54  46 VRB5      30.19F
MONTGOMERY     SUNNY     78  51  38 E9        30.17F
WHITE PLAINS   MOSUNNY   75  51  43 VRB6      30.17F
ISLIP          MOSUNNY   73  55  53 S7        30.17S
NEW YORK CITY  MOSUNNY   76  50  40 NE10      30.17F
CENTRAL PARK   SUNNY     79  49  34 CALM      30.19F
$$

NYZ005>009-017-018-044>046-055-056-292000-
CENTRAL


CITY           SKY/WX    TMP DP  RH WIND       PRES   REMARKS
FULTON         MOSUNNY   73  54  51 VRB5      30.17F
SYRACUSE       MOSUNNY   74  55  51 E6        30.17F
ROME           SUNNY     72  51  47 SW7       30.20F
ELMIRA         SUNNY     73  51  46 N5        30.18S
BINGHAMTON     SUNNY     70  50  49 SE5       30.20F
MONTICELLO     MOSUNNY   72  52  49 SW7       30.21F
$$

NYZ026>034-041>043-292000-
NORTH


CITY           SKY/WX    TMP DP  RH WIND       PRES   REMARKS
WATERTOWN      SUNNY     72  55  55 SW10      30.18F
FORT DRUM      NOT AVBL
MASSENA        MOSUNNY   73  58  59 VRB5      30.18F
SARANAC LAKE   MOSUNNY   70  48  45 CALM      30.18F
PLATTSBURGH    SUNNY     69  52  54 E8        30.18F
$$

NYZ001>004-010>016-019>021-292000-
WEST


CITY           SKY/WX    TMP DP  RH WIND       PRES   REMARKS
NIAGARA FALLS  PTSUNNY   74  52  46 S7        30.14F
BUFFALO        PTSUNNY   75  50  41 NE6       30.15F
DUNKIRK        SUNNY     73  54  51 N12       30.15F
JAMESTOWN      SUNNY     70  52  52 SE7       30.17F
WELLSVILLE     MOSUNNY   70  49  47 VRB6      30.21F
ROCHESTER      PTSUNNY   75  51  43 NW3       30.16F
PENN YAN       SUNNY     72  53  51 CALM      30.19F
$$

             KEY
       WCI = WIND CHILL INDEX
       VSB = VISIBILITY
       HX  = HEAT INDEX
$$


USA.gov is the U.S. government's official web portal to all federal, state and local government web resources and services.